This is the latest recevied weather packets stored in our database for station/object W0VI. If no packets are shown the sender has not sent any weather packets the latest 10 day(s).
| Time | Temp. | Humidity | Pressure | Rain* | Wind** | Luminosity | Snow |
|---|---|---|---|---|---|---|---|
| 1778155869 | 2.22° C | 73% | 1013.4 hPa | 0 mm | - | 55 W/m² | - |
| 1778155565 | 1.67° C | 76% | 1013.3 hPa | 0 mm | - | 49 W/m² | - |
| 1778155262 | 1.67° C | 78% | 1013.5 hPa | 0 mm | - | 44 W/m² | - |
| 1778154958 | 1.11° C | 78% | 1013.3 hPa | 0 mm | - | 40 W/m² | - |
| 1778154654 | 1.11° C | 79% | 1013.3 hPa | 0 mm | - | 28 W/m² | - |
| 1778154350 | 1.11° C | 79% | 1013.4 hPa | 0 mm | - | 26 W/m² | - |
| 1778154047 | 0.56° C | 79% | 1013.3 hPa | 0 mm | - | 23 W/m² | - |
| 1778153744 | 0.56° C | 79% | 1013.3 hPa | 0 mm | - | 19 W/m² | - |
| 1778153441 | 0.56° C | 80% | 1013.5 hPa | 0 mm | - | 18 W/m² | - |
| 1778153139 | 0.56° C | 81% | 1013.5 hPa | 0 mm | - | 16 W/m² | - |
| 1778152836 | 0.56° C | 81% | 1013.3 hPa | 0 mm | - | 13 W/m² | - |
| 1778152533 | 0° C | 81% | 1013.2 hPa | 0 mm | - | 10 W/m² | - |
| 1778152229 | 0° C | 80% | 1013.5 hPa | 0 mm | - | 8 W/m² | - |
| 1778151926 | 0.56° C | 80% | 1013.4 hPa | 0 mm | - | 6 W/m² | - |
| 1778151622 | 0.56° C | 80% | 1013.5 hPa | 0 mm | - | 4 W/m² | - |
| 1778151320 | 0.56° C | 80% | 1013.5 hPa | 0 mm | - | 2 W/m² | - |
| 1778151015 | 0.56° C | 80% | 1013.5 hPa | 0 mm | - | 0 W/m² | - |
| 1778150713 | 0.56° C | 80% | 1013.4 hPa | 0 mm | - | 0 W/m² | - |
| 1778150408 | 0° C | 79% | 1013.4 hPa | 0 mm | - | 0 W/m² | - |
| 1778150100 | 0° C | 79% | 1013.5 hPa | 0 mm | - | 0 W/m² | - |
| 1778149796 | 0° C | 79% | 1013.4 hPa | 0 mm | - | 0 W/m² | - |
| 1778149493 | 0° C | 79% | 1013.5 hPa | 0 mm | - | 0 W/m² | - |
| 1778149189 | 0° C | 79% | 1013.6 hPa | 0 mm | - | 0 W/m² | - |
| 1778148884 | 0° C | 79% | 1013.3 hPa | 0 mm | - | 0 W/m² | - |
| 1778148581 | 0° C | 78% | 1013.4 hPa | 0 mm | - | 0 W/m² | - |
* Rain latest hour (hover to see other rain measurements)
** Current wind speed in m/s (hover to see current wind gust speed)